Tracking 29892 objects as of 21-Nov-2024
HD Live streaming from Space Station
objects crossing your sky now

COSMOS 1275 DEB

Track COSMOS 1275 DEB now!
10-day predictions


NORAD ID: 13813
Int'l Code: 1981-053HL
Perigee: 828.7 km
Apogee: 891.6 km
Inclination: 82.9 °
Period: 102.0 minutes
Semi major axis: 7231 km
RCS: 0.0081 m2 (small)
Launch date: June 4, 1981
Source: Commonwealth of Independent States (former USSR) (CIS)
Launch site: PLESETSK MISSILE AND SPACE COMPLEX (PKMTR)

Note: This is SATELLITE DEBRIS
Your satellite tracking list
Your tracking list is empty




NASA's NSSDC Master Catalog

Two Line Element Set (TLE):
1 13813U 81053HH  24325.75326003  .00004621  00000-0  25008-2 0  9995
2 13813  82.9363 327.0528 0043535  20.2989  33.6685 14.11860812132814
Source of the keplerian elements: AFSPC